Change the Weather History Date:

Friday, July 4, 2014

  Actual Average Record
Temperature  
Mean Temperature 59 °F -  
Max Temperature 77 °F 72 °F 84 °F (2011)
Min Temperature 41 °F 51 °F 41 °F (2014)
Degree Days  
Heating Degree Days 6    
Growing Degree Days 9 (Base 50)    
Moisture  
Dew Point 48 °F    
Average Humidity 66    
Maximum Humidity 93    
Minimum Humidity 34    
Precipitation  
Precipitation 0.24 in - - ()
Sea Level Pressure  
Sea Level Pressure 30.18 in    
Wind  
Wind Speed 3 mph (SSW)    
Max Wind Speed 12 mph    
Max Gust Speed 21 mph    
Visibility 10 miles    
Events Rain , Thunderstorm    
Averages and records for this station are not official NWS values.
T = Trace of Precipitation, MM = Missing Value Source: NWS Daily Summary

Daily Weather History Graph

Daily Weather History Graph

Search for Another Location

Airport or City:

Trip Planner

Search our weather history database for the weather conditions in past years. The results will help you decide how hot, cold, wet, or windy it might be!

Date:

Astronomy

Jul. 04, 2014 Rise Set
Actual Time 5:14 AM CDT 9:08 PM CDT
Civil Twilight 4:34 AM CDT 9:48 PM CDT
Nautical Twilight 3:38 AM CDT 10:44 PM CDT
Astronomical Twilight 2:12 AM CDT 12:09 AM CDT
Moon 12:43 PM CDT (7/4) 12:00 AM CDT (7/4)
Length of Visible Light 17h 14m
Length of Day
15h 53m
Waxing Crescent, 42% of the Moon is Illuminated
Jul 4
Waxing Crescent
Jul 5
First Quarter
Jul 12
Full
Jul 18
Last Quarter
Jul 26
New

Hourly Weather History & Observations

Time (CDT) Temp. Dew Point Humidity Pressure Visibility Wind Dir Wind Speed Gust Speed Precip Events Conditions
12:13 AM 48.2 °F 44.6 °F 87% 30.21 in 10.0 mi Calm Calm - N/A   Clear
12:33 AM 46.4 °F 44.6 °F 93% 30.21 in 10.0 mi Calm Calm - N/A   Clear
12:53 AM 46.4 °F 42.8 °F 87% 30.21 in 10.0 mi Calm Calm - N/A   Clear
1:13 AM 46.4 °F 42.8 °F 87% 30.21 in 10.0 mi Calm Calm - N/A   Clear
1:33 AM 46.4 °F 44.6 °F 93% 30.21 in 10.0 mi Calm Calm - N/A   Clear
1:53 AM 46.4 °F 42.8 °F 87% 30.21 in 10.0 mi Calm Calm - N/A   Clear
2:13 AM 44.6 °F 42.8 °F 93% 30.21 in 10.0 mi Calm Calm - N/A   Clear
2:33 AM 44.6 °F 42.8 °F 93% 30.22 in 10.0 mi Calm Calm - N/A   Clear
2:53 AM 44.6 °F 42.8 °F 93% 30.22 in 10.0 mi Calm Calm - N/A   Clear
3:13 AM 44.6 °F 41.0 °F 87% 30.22 in 10.0 mi Calm Calm - N/A   Clear
3:33 AM 42.8 °F 41.0 °F 93% 30.23 in 10.0 mi Calm Calm - N/A   Clear
3:53 AM 44.6 °F 42.8 °F 93% 30.23 in 10.0 mi Calm Calm - N/A   Clear
4:13 AM 42.8 °F 39.2 °F 87% 30.23 in 10.0 mi Calm Calm - N/A   Clear
4:33 AM 42.8 °F 41.0 °F 93% 30.24 in 10.0 mi Calm Calm - N/A   Clear
4:53 AM 41.0 °F 39.2 °F 93% 30.24 in 10.0 mi Calm Calm - N/A   Clear
5:13 AM 42.8 °F 39.2 °F 87% 30.24 in 10.0 mi Calm Calm - N/A   Clear
5:33 AM 42.8 °F 41.0 °F 93% 30.24 in 10.0 mi Calm Calm - N/A   Clear
5:53 AM 42.8 °F 41.0 °F 93% 30.24 in 10.0 mi Calm Calm - N/A   Clear
6:13 AM 44.6 °F 42.8 °F 93% 30.24 in 10.0 mi Calm Calm - N/A   Clear
6:33 AM 46.4 °F 44.6 °F 93% 30.24 in 10.0 mi Calm Calm - N/A   Clear
6:53 AM 51.8 °F 46.4 °F 82% 30.25 in 10.0 mi Calm Calm - N/A   Clear
7:12 AM 53.6 °F 46.4 °F 77% 30.25 in 10.0 mi Calm Calm - N/A   Clear
7:33 AM 55.4 °F 48.2 °F 77% 30.25 in 10.0 mi Calm Calm - N/A   Clear
7:53 AM 59.0 °F 50.0 °F 72% 30.25 in 10.0 mi Calm Calm - N/A   Clear
8:12 AM 60.8 °F 51.8 °F 72% 30.25 in 10.0 mi Calm Calm - N/A   Clear
8:33 AM 62.6 °F 51.8 °F 68% 30.25 in 10.0 mi SSW 3.5 mph - N/A   Clear
8:53 AM 66.2 °F 53.6 °F 64% 30.25 in 10.0 mi SSW 3.5 mph - N/A   Clear
9:13 AM 68.0 °F 53.6 °F 60% 30.25 in 10.0 mi SW 4.6 mph - N/A   Clear
9:33 AM 69.8 °F 51.8 °F 53% 30.24 in 10.0 mi WSW 6.9 mph - N/A   Clear
9:53 AM 69.8 °F 48.2 °F 46% 30.23 in 10.0 mi SSW 9.2 mph - N/A   Clear
10:13 AM 71.6 °F 48.2 °F 43% 30.22 in 10.0 mi SW 6.9 mph - N/A   Clear
10:33 AM 71.6 °F 46.4 °F 41% 30.22 in 10.0 mi WSW 8.1 mph - N/A   Clear
10:51 AM 71.6 °F 44.6 °F 38% 30.22 in 10.0 mi SSW 9.2 mph - N/A   Clear
11:13 AM 73.4 °F 44.6 °F 36% 30.22 in 10.0 mi SW 8.1 mph - N/A   Clear
11:33 AM 71.6 °F 44.6 °F 38% 30.21 in 10.0 mi WSW 9.2 mph 17.3 mph N/A   Clear
11:53 AM 73.4 °F 44.6 °F 36% 30.21 in 10.0 mi SW 11.5 mph 16.1 mph N/A   Clear
12:13 PM 73.4 °F 46.4 °F 38% 30.21 in 10.0 mi SW 9.2 mph - N/A   Scattered Clouds
12:33 PM 73.4 °F 44.6 °F 36% 30.20 in 10.0 mi SW 9.2 mph 17.3 mph N/A   Clear
12:53 PM 75.2 °F 44.6 °F 34% 30.19 in 10.0 mi SW 6.9 mph 16.1 mph N/A   Clear
1:13 PM 75.2 °F 44.6 °F 34% 30.19 in 10.0 mi SW 9.2 mph - N/A   Clear
1:33 PM 75.2 °F 44.6 °F 34% 30.17 in 10.0 mi SW 9.2 mph 18.4 mph N/A   Clear
1:53 PM 73.4 °F 44.6 °F 36% 30.16 in 10.0 mi WSW 11.5 mph 16.1 mph N/A   Clear
2:13 PM 75.2 °F 46.4 °F 36% 30.16 in 10.0 mi South 9.2 mph - N/A   Clear
2:33 PM 75.2 °F 46.4 °F 36% 30.16 in 10.0 mi SW 10.4 mph 19.6 mph N/A   Clear
2:53 PM 75.2 °F 46.4 °F 36% 30.16 in 10.0 mi SW 4.6 mph 17.3 mph N/A   Clear
3:13 PM 75.2 °F 46.4 °F 36% 30.15 in 10.0 mi SW 8.1 mph - N/A   Clear
3:33 PM 77.0 °F 48.2 °F 36% 30.15 in 10.0 mi SW 9.2 mph 18.4 mph N/A   Scattered Clouds
3:53 PM 77.0 °F 46.4 °F 34% 30.15 in 10.0 mi WSW 11.5 mph 19.6 mph N/A   Clear
4:12 PM 77.0 °F 48.2 °F 36% 30.14 in 10.0 mi SSW 11.5 mph 20.7 mph N/A   Scattered Clouds
4:33 PM 73.4 °F 48.2 °F 41% 30.14 in 10.0 mi SW 9.2 mph 17.3 mph N/A   Mostly Cloudy
4:53 PM 73.4 °F 48.2 °F 41% 30.13 in 10.0 mi SSW 8.1 mph - N/A   Mostly Cloudy
5:12 PM 73.4 °F 50.0 °F 44% 30.13 in 10.0 mi SSW 6.9 mph - N/A   Mostly Cloudy
5:33 PM 71.6 °F 51.8 °F 50% 30.13 in 10.0 mi SSW 6.9 mph - N/A   Overcast
5:53 PM 71.6 °F 51.8 °F 50% 30.13 in 10.0 mi SSW 6.9 mph - N/A   Overcast
6:13 PM 71.6 °F 51.8 °F 50% 30.13 in 10.0 mi SSW 5.8 mph - N/A   Overcast
6:33 PM 71.6 °F 51.8 °F 50% 30.13 in 10.0 mi SW 10.4 mph - N/A   Overcast
6:53 PM 68.0 °F 53.6 °F 60% 30.14 in 10.0 mi WSW 6.9 mph - N/A   Overcast
7:13 PM 62.6 °F 55.4 °F 77% 30.15 in 10.0 mi SW 4.6 mph 9.2 mph 0.04 in Rain Light Rain
7:33 PM 62.6 °F 55.4 °F 77% 30.13 in 10.0 mi SSW 4.6 mph - 0.06 in Rain Light Rain
7:52 PM 62.6 °F 57.2 °F 82% 30.12 in 10.0 mi SSE 3.5 mph - 0.06 in Rain Rain
8:13 PM 62.6 °F 55.4 °F 77% 30.11 in 10.0 mi South 6.9 mph - N/A   Mostly Cloudy
8:33 PM 62.6 °F 55.4 °F 77% 30.09 in 10.0 mi South 4.6 mph - N/A Rain Light Rain
8:53 PM 62.6 °F 55.4 °F 77% 30.09 in 10.0 mi South 6.9 mph - 0.01 in   Mostly Cloudy
9:13 PM 62.6 °F 55.4 °F 77% 30.09 in 10.0 mi SSE 6.9 mph - N/A   Mostly Cloudy
9:33 PM 62.6 °F 55.4 °F 77% 30.09 in 10.0 mi South 8.1 mph - N/A   Overcast
9:53 PM 62.6 °F 55.4 °F 77% 30.11 in 10.0 mi SSW 5.8 mph - N/A   Overcast
10:13 PM 60.8 °F 55.4 °F 82% 30.12 in 10.0 mi NE 3.5 mph - 0.14 in Rain , Thunderstorm Heavy Thunderstorms and Rain
10:33 PM 60.8 °F 55.4 °F 82% 30.08 in 10.0 mi SSE 10.4 mph - 0.14 in Rain Light Rain
10:53 PM 60.8 °F 55.4 °F 82% 30.08 in 10.0 mi SSE 5.8 mph - 0.14 in Thunderstorm Overcast
11:13 PM 60.8 °F 55.4 °F 82% 30.08 in 10.0 mi Calm Calm - N/A   Overcast
11:33 PM 59.0 °F 55.4 °F 88% 30.09 in 7.0 mi Calm Calm - 0.01 in Rain Rain
11:53 PM 59.0 °F 55.4 °F 88% 30.09 in 7.0 mi Calm Calm - 0.03 in Rain Light Rain